ROMMA est une association bénévole à but non lucratif. Votre soutien est indispensable : ADHERER à ROMMA ou FAIRE un DON

La Javie - (04, Alpes de Haute Provence)

Vallée de la Bléone (820 m)   Longitude: 06° 21' E   Latitude: 44° 10' N Station partenaire n°129
 

Détail journalier du     <<     >>

Température Precipitation Humidité Pression Vent Dir Rafale Dir. rafale Ensol.
Heure (°C) (mm) (%) (hPa) (km/h) (km/h) (min)
01:00 10.0099100800---0
02:00 9.70100100700---0
03:00 9.30100100700---0
04:00 9.20100100700---0
05:00 9.20.2100100700---0
06:00 8.80100100700---0
07:00 8.60100100700---0
08:00 9.40100100700---0
09:00 11.30100100800---0
10:00 14.9078100800---0
11:00 15.6078100702---0
12:00 16.0072100805---0
13:00 16.2071100803---0
14:00 16.4066100803---0
15:00 19.105810071---23---0
16:00 18.505410079---26---0
17:00 18.006010078---23---0
18:00 18.40551007010---0
19:00 17.205210071---13---0
20:00 15.7066100808---0
21:00 14.6067100805---0
22:00 13.1068100805---0
23:00 11.5073100903---0
minuit 11.3071100906---0

Graphique du 08-06-2020

 

Serveur OMMA